Weather History for KGTF - December, 2012

Change the Weather History Date:

Thursday, December 13, 2012

  Actual Average Record
Temperature  
Mean Temperature 31 °F 25 °F  
Max Temperature 38 °F 34 °F 59 °F (1921)
Min Temperature 23 °F 15 °F -29 °F (1922)
Degree Days  
Heating Degree Days 34 40  
Month to date heating degree days 400 510  
Since 1 July heating degree days 2017 2479  
Cooling Degree Days 0 0  
Month to date cooling degree days 0 0  
Year to date cooling degree days 484 298  
Moisture  
Dew Point 18 °F    
Average Humidity 64    
Maximum Humidity 84    
Minimum Humidity 44    
Precipitation  
Precipitation 0.00 in 0.02 in 0.51 in (1906)
Month to date precipitation 0.22 0.23  
Year to date precipitation 12.80 14.43  
Snow  
Snow 0.00 in 0.30 in 6.60 in (2008)
Month to date snowfall 5.7 3.7  
Since 1 July snowfall 27.4 17.4  
Snow Depth 1.00 in    
Sea Level Pressure  
Sea Level Pressure 29.85 in    
Wind  
Wind Speed 16 mph (SW)    
Max Wind Speed 29 mph    
Max Gust Speed 33 mph    
Visibility 10 miles    
Events      
T = Trace of Precipitation, MM = Missing Value Source: NWS Daily Summary

Daily Weather History Graph

Daily Weather History Graph

Search for Another Location

Airport or City:

Trip Planner

Search our weather history database for the weather conditions in past years. The results will help you decide how hot, cold, wet, or windy it might be!

Date:

Astronomy

Dec. 13, 2012 Rise Set
Actual Time 8:05 AM MST 4:34 PM MST
Civil Twilight 7:29 AM MST 5:10 PM MST
Nautical Twilight 6:50 AM MST 5:49 PM MST
Astronomical Twilight 6:13 AM MST 6:27 PM MST
Moon 8:15 AM MST (12/13) 5:23 PM MST (12/13)
Length of Visible Light 9h 40m
Length of Day
8h 29m
New Moon, 0% of the Moon is Illuminated
Dec 13
New Moon
Dec 19
First Quarter
Dec 28
Full
Jan 4
Last Quarter
Jan 11
New

Hourly Weather History & Observations

Time (MST) Temp. Windchill Dew Point Humidity Pressure Visibility Wind Dir Wind Speed Gust Speed Precip Events Conditions
12:53 AM 27.0 °F - 23.0 °F 85% 29.91 in 6.0 mi Calm Calm - N/A   Mostly Cloudy
1:53 AM 26.1 °F 20.5 °F 21.9 °F 84% 29.91 in 9.0 mi SW 4.6 mph - N/A   Mostly Cloudy
2:53 AM 30.9 °F 22.2 °F 25.0 °F 79% 29.90 in 10.0 mi SSW 10.4 mph - N/A   Overcast
3:53 AM 30.9 °F 21.7 °F 23.0 °F 72% 29.90 in 10.0 mi SSW 11.5 mph - N/A   Overcast
4:53 AM 30.0 °F 18.7 °F 21.9 °F 72% 29.90 in 10.0 mi SW 16.1 mph - N/A   Clear
5:53 AM 30.9 °F 20.2 °F 19.9 °F 64% 29.91 in 10.0 mi SW 15.0 mph - N/A   Clear
6:53 AM 30.0 °F 20.0 °F 19.0 °F 64% 29.93 in 10.0 mi SW 12.7 mph - N/A   Clear
7:53 AM 28.9 °F 18.6 °F 18.0 °F 64% 29.93 in 10.0 mi SW 12.7 mph - N/A   Clear
8:53 AM 30.0 °F 19.5 °F 18.0 °F 61% 29.92 in 10.0 mi SW 13.8 mph - N/A   Clear
9:53 AM 34.0 °F 25.0 °F 19.0 °F 54% 29.92 in 10.0 mi SSW 12.7 mph - N/A   Clear
10:53 AM 36.0 °F 26.3 °F 18.0 °F 48% 29.90 in 10.0 mi WSW 16.1 mph - N/A   Clear
11:53 AM 37.9 °F 27.9 °F 19.0 °F 47% 29.87 in 10.0 mi SW 19.6 mph 26.5 mph N/A   Clear
12:53 PM 37.9 °F 27.1 °F 18.0 °F 45% 29.85 in 10.0 mi SW 23.0 mph 32.2 mph N/A   Clear
1:53 PM 37.9 °F 26.6 °F 18.0 °F 45% 29.83 in 10.0 mi SW 25.3 mph 32.2 mph N/A   Clear
2:53 PM 37.9 °F 27.1 °F 17.1 °F 43% 29.79 in 10.0 mi SW 23.0 mph 28.8 mph N/A   Clear
5:53 PM 32.0 °F 20.8 °F 15.8 °F 51% 29.69 in 10.0 mi SW 17.3 mph - N/A   Clear
6:53 PM 32.0 °F 20.8 °F 16.0 °F 52% 29.81 in 10.0 mi SW 17.3 mph - N/A   Clear
7:53 PM 32.0 °F 20.5 °F 16.0 °F 52% 29.80 in 10.0 mi SW 18.4 mph - N/A   Clear
8:53 PM 32.0 °F 19.8 °F 16.0 °F 52% 29.79 in 10.0 mi SW 20.7 mph - N/A   Clear
9:53 PM 32.0 °F 19.5 °F 15.1 °F 50% 29.76 in 10.0 mi SW 21.9 mph 29.9 mph N/A   Clear
10:53 PM 32.0 °F 19.5 °F 14.0 °F 48% 29.66 in 10.0 mi SW 21.9 mph 28.8 mph N/A   Clear
11:53 PM 33.1 °F 21.2 °F 12.9 °F 43% 29.74 in 10.0 mi SW 20.7 mph 28.8 mph N/A   Clear